Regional Weather Roundup
Issued by NWS New Orleans/Baton Rouge, LA

Home | Current Version | Previous Version | Graphics & Text | Print | Product List | Glossary On
Versions: 1 2 3 4 5 6 7 8 9 10 11 12 13 14 15 16 17 18 19 20 21 22 23 24 25 26 27 28 29 30 31 32 33 34 35 36 37 38 39 40 41 42 43 44 45 46 47 48 49 50
184
ASUS44 KLIX 180101
RWRLIX
NEW ORLEANS REGIONAL WEATHER ROUNDUP
NATIONAL WEATHER SERVICE NEW ORLEANS LA
800 PM CDT THU APR 17 2014

NOTE: "FAIR" INDICATES FEW OR NO CLOUDS BELOW 12,000 FEET WITH NO
      SIGNIFICANT WEATHER AND/OR OBSTRUCTIONS TO VISIBILITY.
      SKY/WX - SKY CONDITION AND SIGNIFICANT WEATHER.
      TMP - AIR TEMPERATURE.     DP    - DEWPOINT TEMPERATURE.
      RH  - RELATIVE HUMIDITY.   PRES  - PRESSURE.
      HI  - HEAT INDEX.          WCI   - WIND CHILL INDEX.

*  THESE STATIONS ARE NOT NWS OR FAA STATIONS AND ARE NOT UNDER
   NWS QUALITY CONTROL.

LAZ038-040-048-061>063-065>067-069-180200-
SOUTHEAST LOUISIANA

CITY           SKY/WX    TMP DP  RH WIND       PRES   REMARKS
N.O. AUDUBON     N/A     64  32  30 MISG        N/A
N.O. INTL ARPT LGT RAIN  63  60  90 E12       30.12F
N.O. LAKEFRONT LGT RAIN  63  61  93 E12       30.13F
N.O. DOWNTOWN* CLOUDY    63  57  82 NE8       30.12F
SLIDELL        LGT RAIN  62  59  90 CALM      30.14F
BATON ROUGE    CLOUDY    64  57  78 E8        30.12S
BOOTHVILLE     LGT RAIN  62  61  96 E14       30.11F FOG
BELLE CHASSE   LGT RAIN  62  59  90 NE7       30.10F FOG
BOGALUSA*        N/A     64  57  78 CALM      30.16F
GALLIANO*      NOT AVBL
NEW ROADS*     NOT AVBL
GONZALES*      CLOUDY    64  60  90 E9        30.12S
HAMMOND*       NOT AVBL
HOUMA*           N/A     64  60  88 NE9G16    30.10R
PORT FOURCHON* CLOUDY    64  63  94 E24G31    30.03F FOG

$$

MSZ070-080>082-180200-
SOUTHERN MISSISSIPPI

CITY           SKY/WX    TMP DP  RH WIND       PRES   REMARKS
MCCOMB         CLOUDY    62  55  77 E5        30.15F
GULFPORT       CLOUDY    66  60  81 CALM      30.15R
BILOXI         CLOUDY    65  60  82 N2        30.15R
PASCAGOULA     CLOUDY    64  59  83 N3        30.15R
STENNIS ARPT*  LGT RAIN  61  57  88 CALM      30.15F

$$

COASTAL OBSERVATIONS
LAKE AND NEARSHORE STATIONS

STATION/POSITION TIME  TEMP    WIND        PRES    WAVE
                       AIR SEA DIR/SP/G            HT/PER
                 (UTC) (F)     (DEG/KT/KT) (MB)    (FT/S)
PASCAGOULA       0000   66      60/ 10/ 13 1019.6
WAVELAND YACHT   0000   64 66   20/  1/  2 1020.2
GRAND ISLE       0000   64 67  100/ 13/ 20 1019.3
SOUTHWEST PASS   0000   64 58   60/ 12/ 13 1020.4
NEW CANAL        0000   63 63   80/  6/ 11 1020.5
SHELL BEACH      0000   62 61   80/ 10/ 12 1020.5

OFFSHORE STATIONS

STATION/POSITION TIME  TEMP    WIND        PRES    WAVE
                       AIR SEA DIR/SP/G            HT/PER
                 (UTC) (F)     (DEG/KT/KT) (MB)    (FT/S)
64 S DAUPHIN ISL 0013   66 71   60/ 19/ 23 1019.9

$$




USA.gov is the U.S. government's official web portal to all federal, state and local government web resources and services.